Location: Berkeley
(37.8716°N, 122.2727°W)
Time: 03:47:43
(UTC-07:00)

ISS - Visible Passes

Search period start: 30 March 2017 00:00
Search period end: 09 April 2017 00:00
Orbit: 399 x 409 km, 51.6° (Epoch: 30 March)

Date Brightness Start Highest point End Pass type
(mag) Time Alt. Az. Time Alt. Az. Time Alt. Az.
30 Mar -1.0 21:06:41 10° WNW 21:08:45 16° NNW 21:10:50 10° NNE visible
31 Mar -1.5 20:13:29 10° W 20:16:10 23° NNW 20:18:51 10° NNE visible
01 Apr -0.7 21:00:12 10° NNW 21:00:51 10° NNW 21:01:29 10° N visible
02 Apr -1.0 20:06:19 10° NW 20:08:08 14° NNW 20:09:56 10° NNE visible
06 Apr -1.0 21:29:20 10° N 21:30:02 10° NNE 21:30:15 10° NNE visible
07 Apr -0.7 22:11:54 10° NNW 22:12:28 13° NNW 22:12:28 13° NNW visible
08 Apr -1.5 21:19:50 10° NNW 21:21:55 16° NNE 21:22:04 16° NNE visible
